MMS 2

Last updated on Thu Oct 30 2025 00:02:41 GMT+0000 (Coordinated Universal Time)

1 40483U 15011B 25302.58336806 -.00000548 00000+0 00000+0 0 9994 2 40483 68.3176 352.3040 8563612 162.3455 177.4915 0.28363314 1371
UTC large
Height (km)
Speed (km/s)
/
Latitude / Longitude
Inclination (degrees)
Orbital Period (minutes)
Azimuth
Elevation
Range (km)
Doppler Factor

Next 0 passes for location: London (51.5072 / 0.1276)

Sorry there are no passes over London.